Tracking 29892 objects as of 21-Nov-2024
HD Live streaming from Space Station
objects crossing your sky now

FENGYUN 1C DEB

Track FENGYUN 1C DEB now!
10-day predictions


NORAD ID: 35229
Int'l Code: 1999-025DQM
Perigee: 718.6 km
Apogee: 808.1 km
Inclination: 98.5 °
Period: 100.0 minutes
Semi major axis: 7134 km
RCS: 0.0123 m2 (small)
Launch date: May 10, 1999
Source: People's Republic of China (PRC)
Launch site: Taiyaun Space Center, China (TSC)

Note: This is SATELLITE DEBRIS
Your satellite tracking list
Your tracking list is empty




NASA's NSSDC Master Catalog

Two Line Element Set (TLE):
1 35229U 99025DQM 24322.00184785  .00014757  00000-0  45179-2 0  9994
2 35229  98.4837  32.4124 0062755 323.8991  35.7969 14.40694926588407
Source of the keplerian elements: AFSPC